Location: ???? ?????????
(31.1304°N, 31.7111°E)
Time: 09:35:33
(UTC+00:00)

Vanguard 2 Rocket - Visible Passes

Search period start: 01 March 2021 00:00
Search period end: 11 March 2021 00:00
Orbit: 554 x 3325 km, 32.9° (Epoch: 28 February)

Date Brightness Start Highest point End Pass type
(mag) Time Alt. Az. Time Alt. Az. Time Alt. Az.
01 Mar 7.6 01:55:25 56° S 01:56:18 60° SSE 02:07:02 10° ENE visible
02 Mar 8.8 00:59:14 31° ESE 00:59:14 31° ESE 01:04:49 10° E visible
02 Mar 8.0 03:05:02 23° W 03:10:17 88° N 03:23:39 10° E visible
03 Mar 7.3 02:08:50 63° SW 02:10:08 79° SSE 02:21:06 10° ENE visible
04 Mar 8.2 01:12:36 42° E 01:12:36 42° E 01:19:03 10° ENE visible
04 Mar 8.0 03:18:24 17° W 03:24:25 81° N 03:37:48 10° E visible
05 Mar 9.7 00:16:21 13° E 00:16:21 13° E 00:17:25 10° E visible
05 Mar 7.3 02:22:09 51° W 02:24:10 86° N 02:35:10 10° E visible
06 Mar 7.7 01:25:54 56° E 01:25:54 56° E 01:33:08 10° ENE visible
06 Mar 8.1 03:31:41 12° W 03:38:36 81° N 03:51:59 10° E visible
07 Mar 9.3 00:29:37 18° E 00:29:37 18° E 00:31:39 10° E visible
07 Mar 7.5 02:35:25 38° W 02:38:19 79° N 02:49:19 10° E visible
08 Mar 7.2 01:39:09 71° ENE 01:39:09 71° ENE 01:47:14 10° E visible
08 Mar 8.1 03:45:29 10° W 03:52:42 87° N 04:06:08 10° E visible
09 Mar 9.0 00:42:53 23° E 00:42:53 23° E 00:45:46 10° ENE visible
09 Mar 7.5 02:48:40 28° W 02:52:28 80° N 03:03:30 10° E visible
10 Mar 6.9 01:52:24 76° NNW 01:52:31 77° N 02:01:22 10° E visible
